Location: Jackson
(35.6140°N, 88.8140°W)
Time: 11:03:48
(UTC-05:00)

N. Korean satellite - Visible Passes

Search period start: 18 March 2019 00:00
Search period end: 28 March 2019 00:00
Orbit: 455 x 511 km, 97.2° (Epoch: 18 March)

Date Brightness Start Highest point End Pass type
(mag) Time Alt. Az. Time Alt. Az. Time Alt. Az.
18 Mar 10.0 06:07:42 10° ENE 06:09:32 14° E 06:11:23 10° SE visible
21 Mar 9.3 06:25:40 10° NE 06:28:37 24° E 06:31:36 10° SSE visible
22 Mar 10.2 06:02:23 10° ENE 06:03:41 12° E 06:04:59 10° ESE visible
25 Mar 9.7 06:19:57 10° NE 06:22:44 21° E 06:25:32 10° SSE visible
